Regional Weather Roundup
Issued by NWS Cleveland, OH

Home | Current Version | Previous Version | Text Only | Print | Product List | Glossary On
Versions: 1 2 3 4 5 6 7 8 9 10 11 12 13 14 15 16 17 18 19 20 21 22 23 24 25 26 27 28 29 30 31 32 33 34 35 36 37 38 39 40 41 42 43 44 45 46 47 48 49 50
000
ASUS41 KCLE 300812
RWRCLE
OHIO REGIONAL WEATHER ROUNDUP
NATIONAL WEATHER SERVICE WILMINGTON, OH
400 AM EDT FRI SEP 30 2016

NOTE: "FAIR" INDICATES FEW OR NO CLOUDS BELOW 12,000 FEET WITH NO
SIGNIFICANT WEATHER AND/OR OBSTRUCTIONS TO VISIBILITY.

OHZ001>008-015>018-024>027-034-035-043-044-300900-
   NORTHWEST OHIO

CITY           SKY/WX    TMP DP  RH WIND       PRES   REMARKS
DEFIANCE       CLOUDY    62  59  90 CALM      30.11S
FINDLAY        CLOUDY    62  58  86 NE6       30.09S
TOLEDO EXPRESS LGT RAIN  62  62 100 E10       30.11R
TOLEDO EXEC    CLOUDY    63  60  90 E14G23    30.11R
LIMA           LGT RAIN  59  59 100 NE6       30.08F
$$

OHZ009>014-019>023-028>033-038-089-300900-
   NORTHEAST OHIO

CITY           SKY/WX    TMP DP  RH WIND       PRES   REMARKS
CLE-HOPKINS    LGT RAIN  61  56  83 E12       30.17S
CLE-LAKEFRONT  CLOUDY    61  57  87 E7        30.15R
CUY CO. ARPT   NOT AVBL
LORAIN-ELYRIA  NOT AVBL
ASHTABULA      LGT RAIN  58  58 100 E8        30.20F
AKRON-CANTON   LGT RAIN  58  56  93 E10       30.13F
WOOSTER        CLOUDY    58  56  93 E14       30.11F
MANSFIELD      CLOUDY    59  58  96 E12       30.09R
YOUNGSTOWN     LGT RAIN  57  55  93 E13       30.17R
$$

OHZ042-051>053-060>062-070>072-077>081-300900-
  SOUTHWEST OHIO

CITY           SKY/WX    TMP DP  RH WIND       PRES   REMARKS
CINC-COVINGTON CLOUDY    58  56  93 S7        30.02S
CINC-LUNKEN    FOG       54  54 100 CALM      30.03S VSB 1
HAMILTON       CLOUDY    57  55  93 CALM      30.04S
DAYTON         CLOUDY    57  57 100 NE7       30.03F
WRIGHT-PAT AFB MOCLDY    58  57  99 NE7       30.01F
DAYTON GENERAL FAIR      56  54  93 NE6       30.02R
WILMINGTON     FAIR      55  54  96 CALM      30.02S FOG
$$

OHZ036-037-039>041-045>050-054>059-063>069-073>076-082>088-300900-
  CENTRAL AND SOUTHEAST OHIO

CITY           SKY/WX    TMP DP  RH WIND       PRES   REMARKS
COLUMBUS       CLOUDY    62  61  96 E8        30.05S
OSU AIRPORT    CLOUDY    61  60  97 E7        30.05F
BOLTON FIELD     N/A     59  59 100 NE5       30.04F
RICKENBACK AFB CLOUDY    59  59 100 NE5       30.03F
NEWARK         CLOUDY    61  59  93 NE6       30.05F
MARION         CLOUDY    60  57  89 E5        30.08R
LANCASTER      CLOUDY    62  60  93 NE6       30.04F
ZANESVILLE     CLOUDY    62  60  93 E6        30.06S
NEW PHILLY     LGT RAIN  60  59  96 E6        30.11F
$$



USA.gov is the U.S. government's official web portal to all federal, state and local government web resources and services.